Tracking 30970 objects as of 3-Jul-2025
HD Live streaming from Space Station
objects crossing your sky now

BREEZE-KM R/B

Track BREEZE-KM R/B now!
10-day predictions


NORAD ID: 42970
Int'l Code: 2017-064B
Perigee: 395.3 km
Apogee: 664.8 km
Inclination: 98.7 °
Period: 95.1 minutes
Semi major axis: 6901 km
RCS: Unknown
Launch date: October 13, 2017
Source: Commonwealth of Independent States (former USSR) (CIS)
Launch site: PLESETSK MISSILE AND SPACE COMPLEX (PKMTR)

Note: This is a ROCKET BODY
Your satellite tracking list
STARLINK-4662
Track 1 satellite(s)




NASA's NSSDC Master Catalog

Two Line Element Set (TLE):
1 42970U 17064B   25183.88609052  .00005086  00000-0  17503-3 0  9995
2 42970  98.7278 146.6689 0195216 116.7625 245.3724 15.14364622421904
Source of the keplerian elements: AFSPC